Simultaneous Nadir Overpasses (SNOs) Predictions

Prediction of SNOs between GOES-17 and NOAA-20 Satellite Orbit:

Table of predicted SNOs for the next 14.0 days since TLE Epoch: 1/20/2024
Index Date Time (GOES-17) GOES-17 Lat,Lon NOAA-20 Lat,Lon Distance(km) Time Diff (sec)
1 01/20/2024 20:23:42 -0.01,-104.66 0.09,-104.29 41.92 80
2 01/23/2024 08:26:47 0.01,-104.68 0.11,-105.03 39.95 80
3 01/24/2024 08:05:23 0.01,-104.68 -0.93,-100.51 476.00 80
4 01/25/2024 20:27:20 -0.01,-104.65 -0.25,-105.81 132.18 80
5 01/26/2024 20:11:16 -0.01,-104.65 0.73,-101.28 384.18 80
6 01/28/2024 08:33:05 0.01,-104.69 0.43,-106.56 212.69 80
7 01/29/2024 08:11:42 0.00,-104.69 -0.62,-102.03 303.66 80
8 01/30/2024 20:33:38 -0.00,-104.66 -0.62,-107.33 304.22 80
9 01/31/2024 20:17:35 -0.00,-104.67 0.43,-102.81 212.41 80
10 02/02/2024 08:39:23 0.01,-104.71 0.77,-108.07 383.90 80
